Regional Weather Roundup
Issued by NWS

Home | Current Version | Previous Version | Text Only | Print | Product List | Glossary Off
Versions: 1 2 3 4 5 6 7 8 9 10 11 12 13 14 15 16 17 18 19 20 21 22 23 24 25 26 27 28 29 30 31 32 33 34 35 36 37 38 39 40 41 42 43 44 45 46 47 48 49 50

000
ASUS43 KOAX 261410
RWRNE

WEATHER ROUNDUP FOR NEBRASKA
NATIONAL WEATHER SERVICE OMAHA NE
900 AM CDT TUE MAY 26 2015

NOTES: SATELLITE DATA IS BEING USED TO AUGMENT CLOUD COVER ABOVE
       12000 FEET.
       "FAIR" INDICATES FEW OR NO CLOUDS BELOW 12,000 FEET WITH NO
       SIGNIFICANT WEATHER AND/OR OBSTRUCTIONS TO VISIBILITY.

  * THESE STATIONS DO NOT REPORT WEATHER SUCH AS RAIN...SNOW OR FOG.

NEZ001>004-019>022-054>056-261500-
NEBRASKA PANHANDLE

CITY           SKY/WX    TMP DP  RH WIND       PRES   REMARKS
SCOTTSBLUFF    MOSUNNY   54  51  90 W6        30.01S
ALLIANCE       CLOUDY    54  52  93 N8        29.99S
CHADRON        CLOUDY    54  52  93 NE7       30.00S
KIMBALL          N/A    N/A N/A N/A MISG        N/A
SIDNEY         FOG       50  50 100 NW8       30.03R VSB 1/4
$$

NEZ057>060-069>072-079>082-261500-
SOUTHWEST NEBRASKA

CITY           SKY/WX    TMP DP  RH WIND       PRES   REMARKS
NORTH PLATTE   CLOUDY    57  49  74 N13       29.96R
IMPERIAL       MOSUNNY   57  52  83 N9        29.98R
LEXINGTON      PTSUNNY   58  53  84 NW16      29.92R
MCCOOK         MOSUNNY   59  53  80 NW10      29.95R
OGALLALA       PTSUNNY   56  53  89 N8        29.98S
$$

NEZ005>010-023>029-035>040-094-261500-
NORTH CENTRAL NEBRASKA

CITY           SKY/WX    TMP DP  RH WIND       PRES   REMARKS
VALENTINE      MOSUNNY   58  50  75 N13       29.96R
AINSWORTH      MOSUNNY   57  53  85 N15       29.94S
BROKEN BOW     CLOUDY    57  51  80 N20       29.90R
O`NEILL        CLOUDY    56  52  87 N14       29.89R
ORD            CLOUDY    56  51  84 N14G22    29.87R
THEDFORD       MOSUNNY   56  50  78 N12       29.97R
$$

NEZ041-046>049-061>064-073>077-083>087-261500-
SOUTH CENTRAL NEBRASKA

CITY           SKY/WX    TMP DP  RH WIND       PRES   REMARKS
GRAND ISLAND   CLOUDY    59  54  83 N21G26    29.85R
AURORA         CLOUDY    59  58  97 NW20      29.84R
HASTINGS       CLOUDY    59  54  83 N23       29.84R
HEBRON         CLOUDY    61  56  84 NW10G16   29.81R
HOLDREGE       MOSUNNY   59  51  75 N15G21    29.90R
KEARNEY *      MOSUNNY   59  52  77 NW18      29.87S
YORK           CLOUDY    59  57  94 NW8       29.82R
$$

NEZ011>018-030>034-042>045-261500-
NORTHEAST NEBRASKA

CITY           SKY/WX    TMP DP  RH WIND       PRES   REMARKS
NORFOLK        CLOUDY    58  56  93 NW15      29.82R
ALBION         CLOUDY    55  54  94 N14       29.85R
BLAIR          CLOUDY    62  58  86 W9        29.78S
COLUMBUS *     CLOUDY   N/A N/A N/A MISG        N/A
FREMONT        LGT RAIN  61  59  94 CALM      29.79S
TEKAMAH        CLOUDY    63  60  90 SW5       29.78S
WAYNE          CLOUDY    58  57  95 N12       29.81S FOG
$$

NEZ050>053-065>068-078-088>093-261500-
SOUTHEAST NEBRASKA

CITY           SKY/WX    TMP DP  RH WIND       PRES   REMARKS
LINCOLN        CLOUDY    64  58  80 CALM      29.79R
OMAHA EPPLEY   CLOUDY    63  60  90 S5        29.78S
BEATRICE       CLOUDY    64  59  82 W10       29.78S
FALLS CITY     RAIN      61  58  90 S12       29.79S
NEBRASKA CITY  PTSUNNY   62  61  97 SW9       29.81R
PLATTSMOUTH    CLOUDY    63  58  86 SW8       29.79R
$$

NEZ044-045-051>053-067-261500-
OMAHA AREA

CITY           SKY/WX    TMP DP  RH WIND       PRES   REMARKS
OMAHA EPPLEY   CLOUDY    63  60  90 S5        29.78S
BLAIR          CLOUDY    62  58  86 W9        29.78S
FREMONT        LGT RAIN  61  59  94 CALM      29.79S
MILLARD        CLOUDY    64  59  83 W3        29.78R
OFFUTT AFB     CLOUDY    63  60  91 SW5       29.78R
PLATTSMOUTH    CLOUDY    63  58  86 SW8       29.79R
WAHOO          LGT RAIN  61  59  93 W7        29.79R
$$


USA.gov is the U.S. government's official web portal to all federal, state and local government web resources and services.